Skip Page Navigation
NASA JPL Caltech
NASA Logo - Jet Propulsion Laboratory + View the NASA Portal
+ Near-Earth Object (NEO) Program
Search JPL
JPL Home Earth Solar System Stars & Galaxies Technology
JPL Solar System Dynamics
BODIES ORBITS EPHEMERIDES TOOLS PHYSICAL DATA DISCOVERY FAQ SITE MAP
JPL Small-Body Database Browser
Search: [ help ]  
134348 Klemperer (1992 UX9)
Classification: Main-belt Asteroid          SPK-ID: 2134348
Ephemeris | Orbit Diagram | Orbital Elements | Physical Parameters | Discovery Circumstances ]

[ show orbit diagram ]
Orbital Elements at Epoch 2456400.5 (2013-Apr-18.0) TDB
Reference: MPO251220 (heliocentric ecliptic J2000)
 Element Value Uncertainty (1-sigma)   Units 
e 0.2745714 n/a  
a 2.8437072 n/a AU
q 2.0629065 n/a AU
i 5.19826 n/a deg
node 179.57819 n/a deg
peri 162.42848 n/a deg
M 124.42669 n/a deg
tp 2455795.1078526
(2011-Aug-21.60785260)
n/a JED
period 1751.5628928
4.80
n/a
n/a
d
yr
n 0.20553073 n/a deg/d
Q 3.6245079 n/a AU
  Orbit Determination Parameters
   # obs. used (total)      238  
   first obs. used      1992-??-??  
   last obs. used      2013-01-21  
   # oppositions      10  
   planetary ephem.      DE403  
   condition code      0  
   fit RMS      0.43  
   data source      MPC:mpu  
   producer      MPCLINUX  

Additional Information
 T_jup = 3.246 

Ephemeris | Orbit Diagram | Orbital Elements | Physical Parameters | Discovery Circumstances ]

Physical Parameter Table
Parameter Symbol Value Units Sigma Reference Notes
absolute magnitude H 15.6 mag n/a MPO251220  

134348 Klemperer           Discovered 1992 Oct. 31 by F. Börngen at Tautenburg.
Victor Klemperer (1881-1960), son of a rabbi, was a professor of philology in Dresden. Suspended, he kept a diary from 1933 to 1945 that is a unique day-to-day account of life under the Nazi tyranny. It was translated into English and filmed.
NOTE: some special characters may not display properly (any characters within {} are an attempt to place the proper accent above a character)
Reference: 20070402/MPCPages.arcLast Updated: 2007-07-05
Ephemeris | Orbit Diagram | Orbital Elements | Physical Parameters | Discovery Circumstances ]
ABOUT SSD CREDITS/AWARDS PRIVACY/COPYRIGHT GLOSSARY LINKS
FirstGov 2013-May-21 17:17 UT
(server date/time)  
NASA Home Page
Site Manager:   Donald K. Yeomans
Webmaster  Alan B. Chamberlin